Weather History for Sanford, NC

Change the Weather History Date:

Thursday, April 10, 2014

  Actual Average (KRDU) Record (KRDU)
Temperature  
Mean Temperature 55 °F 59 °F  
Max Temperature 75 °F 71 °F 90 °F (2001)
Min Temperature 35 °F 47 °F 23 °F (1985)
Degree Days  
Heating Degree Days 10 7  
Month to date heating degree days 84  
Since 1 July heating degree days 3080  
Cooling Degree Days 0 1  
Month to date cooling degree days 10  
Year to date cooling degree days 22  
Growing Degree Days 5 (Base 50)    
Moisture  
Dew Point 38 °F    
Average Humidity 60    
Maximum Humidity 98    
Minimum Humidity 25    
Precipitation  
Precipitation 0.00 in 0.10 in 1.37 in (1928)
Month to date precipitation 1.05  
Year to date precipitation 11.89  
Snow  
Snow 0.00 in 0.00 in 0.00 in (2002)
Month to date snowfall 0.1  
Since 1 July snowfall 6.1  
Snow Depth -    
Sea Level Pressure  
Sea Level Pressure 30.19 in    
Wind  
Wind Speed 2 mph (South)    
Max Wind Speed 12 mph    
Max Gust Speed 23 mph    
Visibility 9 miles    
Events      
T = Trace of Precipitation, MM = Missing Value Source: NWS Daily Summary

Daily Weather History Graph

Daily Weather History Graph

Search for Another Location

Airport:

Trip Planner

Search our weather history database for the weather conditions in past years. The results will help you decide how hot, cold, wet, or windy it might be!

Date:

Astronomy

Apr. 10, 2014 Rise Set
Actual Time 6:50 AM EDT 7:45 PM EDT
Civil Twilight 6:24 AM EDT 8:11 PM EDT
Nautical Twilight 5:53 AM EDT 8:42 PM EDT
Astronomical Twilight 5:21 AM EDT 9:14 PM EDT
Moon 3:36 PM EDT (4/10) 4:03 AM EDT (4/10)
Length of Visible Light 13h 47m
Length of Day
12h 54m
Waxing Gibbous, 79% of the Moon is Illuminated
Apr 10
Waxing Gibbous
Apr 15
Full
Apr 22
Last Quarter
Apr 29
New
May 6
First Quarter

Hourly Weather History & Observations

Time (EDT) Temp. Dew Point Humidity Pressure Visibility Wind Dir Wind Speed Gust Speed Precip Events Conditions
12:15 AM 43.0 °F 40.6 °F 91% 30.11 in 10.0 mi Calm Calm - N/A   Unknown
12:35 AM 43.2 °F 41.0 °F 92% 30.12 in 10.0 mi Calm Calm - N/A   Unknown
12:55 AM 42.6 °F 40.6 °F 93% 30.12 in 10.0 mi Calm Calm - N/A   Unknown
1:15 AM 41.9 °F 40.6 °F 95% 30.13 in 10.0 mi Calm Calm - N/A   Unknown
1:35 AM 41.9 °F 40.6 °F 95% 30.14 in 10.0 mi Calm Calm - N/A   Unknown
1:55 AM 40.5 °F 39.4 °F 96% 30.14 in 7.0 mi Calm Calm - N/A   Unknown
2:15 AM 40.5 °F 39.4 °F 96% 30.14 in 10.0 mi Calm Calm - N/A   Unknown
2:35 AM 39.9 °F 39.0 °F 97% 30.14 in 7.0 mi Calm Calm - N/A   Unknown
2:55 AM 40.1 °F 39.0 °F 96% 30.14 in 10.0 mi Calm Calm - N/A   Unknown
3:15 AM 39.0 °F 38.1 °F 97% 30.14 in 7.0 mi Calm Calm - N/A   Unknown
3:35 AM 38.7 °F 37.8 °F 97% 30.14 in 7.0 mi Calm Calm - N/A   Unknown
3:55 AM 37.9 °F 37.4 °F 98% 30.15 in 7.0 mi Calm Calm - N/A   Unknown
4:15 AM 37.8 °F 37.0 °F 97% 30.16 in 7.0 mi Calm Calm - N/A   Unknown
4:35 AM 38.1 °F 37.4 °F 97% 30.16 in 10.0 mi Calm Calm - N/A   Unknown
4:55 AM 37.8 °F 37.0 °F 97% 30.17 in 10.0 mi Calm Calm - N/A   Unknown
5:15 AM 36.7 °F 36.0 °F 97% 30.18 in 7.0 mi Calm Calm - N/A   Unknown
5:35 AM 37.0 °F 36.5 °F 98% 30.18 in 10.0 mi Calm Calm - N/A   Unknown
5:55 AM 36.1 °F 35.4 °F 97% 30.19 in 7.0 mi Calm Calm - N/A   Unknown
6:15 AM 36.5 °F 36.0 °F 98% 30.20 in 10.0 mi Calm Calm - N/A   Unknown
6:35 AM 35.6 °F 34.7 °F 97% 30.21 in 7.0 mi Calm Calm - N/A   Unknown
6:55 AM 35.6 °F 34.9 °F 97% 30.22 in 7.0 mi Calm Calm - N/A   Unknown
7:15 AM 35.6 °F 35.1 °F 98% 30.23 in 7.0 mi Calm Calm - N/A   Unknown
7:35 AM 36.1 °F 35.6 °F 98% 30.24 in 7.0 mi Calm Calm - N/A   Unknown
7:55 AM 37.2 °F 36.5 °F 97% 30.25 in 4.0 mi Calm Calm - N/A   Mist
8:15 AM 38.8 °F 38.1 °F 97% 30.26 in 5.0 mi Calm Calm - N/A   Mist
8:35 AM 42.4 °F 41.4 °F 96% 30.26 in 7.0 mi Calm Calm - N/A   Unknown
8:55 AM 46.4 °F 43.0 °F 88% 30.26 in 10.0 mi Calm Calm - N/A   Unknown
9:15 AM 49.3 °F 44.6 °F 84% 30.26 in 10.0 mi Calm Calm - N/A   Unknown
9:35 AM 52.7 °F 45.1 °F 75% 30.27 in 10.0 mi Calm Calm - N/A   Unknown
9:55 AM 55.4 °F 44.8 °F 67% 30.27 in 10.0 mi Calm Calm - N/A   Unknown
10:15 AM 58.1 °F 41.0 °F 53% 30.27 in 10.0 mi Calm Calm - N/A   Unknown
10:35 AM 60.3 °F 43.5 °F 54% 30.27 in 10.0 mi Calm Calm - N/A   Unknown
10:55 AM 62.8 °F 38.8 °F 41% 30.28 in 10.0 mi Calm Calm - N/A   Unknown
11:15 AM 64.2 °F 38.7 °F 39% 30.27 in 10.0 mi Calm Calm - N/A   Unknown
11:35 AM 65.5 °F 37.0 °F 35% 30.27 in 10.0 mi SSE 3.5 mph - N/A   Unknown
11:55 AM 67.6 °F 37.8 °F 33% 30.26 in 10.0 mi SSE 6.9 mph - N/A   Unknown
12:15 PM 69.1 °F 35.2 °F 29% 30.25 in 10.0 mi South 6.9 mph - N/A   Unknown
12:35 PM 68.4 °F 34.0 °F 28% 30.24 in 10.0 mi SSW 5.8 mph - N/A   Unknown
12:55 PM 70.0 °F 35.2 °F 28% 30.24 in 10.0 mi SW 6.9 mph 20.7 mph N/A   Unknown
1:15 PM 70.7 °F 35.4 °F 27% 30.22 in 10.0 mi South 4.6 mph 17.3 mph N/A   Unknown
1:35 PM 70.5 °F 32.7 °F 25% 30.22 in 10.0 mi South 3.5 mph - N/A   Unknown
1:55 PM 71.6 °F 35.4 °F 27% 30.22 in 10.0 mi SW 8.1 mph 16.1 mph N/A   Unknown
2:15 PM 72.0 °F 36.0 °F 27% 30.21 in 10.0 mi South 10.4 mph 17.3 mph N/A   Unknown
2:35 PM 73.0 °F 37.2 °F 27% 30.20 in 10.0 mi SSW 9.2 mph 16.1 mph N/A   Unknown
2:55 PM 73.2 °F 34.9 °F 25% 30.19 in 10.0 mi SSW 6.9 mph 17.3 mph N/A   Unknown
3:15 PM 73.4 °F 36.1 °F 26% 30.18 in 10.0 mi South 5.8 mph - N/A   Unknown
3:35 PM 74.5 °F 37.4 °F 26% 30.17 in 10.0 mi South 8.1 mph 23.0 mph N/A   Unknown
3:55 PM 74.3 °F 37.6 °F 26% 30.17 in 10.0 mi SW 10.4 mph 20.7 mph N/A   Unknown
4:15 PM 74.5 °F 37.4 °F 26% 30.16 in 10.0 mi South 11.5 mph 19.6 mph N/A   Unknown
4:35 PM 75.0 °F 39.0 °F 27% 30.15 in 10.0 mi SSW 8.1 mph - N/A   Unknown
4:55 PM 74.7 °F 37.0 °F 26% 30.14 in 10.0 mi South 11.5 mph - N/A   Unknown
5:15 PM 74.8 °F 37.9 °F 26% 30.15 in 10.0 mi SSW 10.4 mph 18.4 mph N/A   Unknown
5:35 PM 75.0 °F 38.3 °F 26% 30.14 in 10.0 mi SSW 10.4 mph - N/A   Unknown
5:55 PM 74.7 °F 38.7 °F 27% 30.14 in 10.0 mi SSW 6.9 mph - N/A   Unknown
6:15 PM 74.1 °F 38.3 °F 27% 30.14 in 10.0 mi SSW 8.1 mph - N/A   Unknown
6:35 PM 73.8 °F 37.8 °F 27% 30.14 in 10.0 mi SSW 10.4 mph - N/A   Unknown
6:55 PM 73.2 °F 37.2 °F 27% 30.14 in 10.0 mi South 8.1 mph - N/A   Unknown
7:15 PM 71.8 °F 37.8 °F 29% 30.14 in 10.0 mi South 8.1 mph - N/A   Unknown
7:35 PM 70.3 °F 37.8 °F 30% 30.14 in 10.0 mi South 4.6 mph - N/A   Unknown
7:55 PM 68.2 °F 37.2 °F 32% 30.15 in 10.0 mi South 3.5 mph - N/A   Unknown
8:15 PM 66.4 °F 37.4 °F 34% 30.15 in 10.0 mi Calm Calm - N/A   Unknown
8:35 PM 64.8 °F 38.7 °F 38% 30.16 in 10.0 mi Calm Calm - N/A   Unknown
8:55 PM 62.6 °F 40.6 °F 45% 30.17 in 10.0 mi Calm Calm - N/A   Unknown
9:15 PM 58.1 °F 43.2 °F 58% 30.17 in 10.0 mi Calm Calm - N/A   Unknown
9:35 PM 59.5 °F 42.4 °F 53% 30.18 in 10.0 mi South 3.5 mph - N/A   Unknown
10:15 PM 59.5 °F 39.4 °F 47% 30.19 in 10.0 mi South 3.5 mph - N/A   Unknown
10:35 PM 59.7 °F 38.7 °F 46% 30.19 in 10.0 mi South 4.6 mph - N/A   Unknown
10:55 PM 59.9 °F 38.7 °F 45% 30.19 in 10.0 mi South 4.6 mph - N/A   Unknown
11:15 PM 59.9 °F 37.8 °F 44% 30.19 in 10.0 mi SSE 4.6 mph - N/A   Unknown
11:35 PM 60.1 °F 41.5 °F 50% 30.19 in 10.0 mi South 6.9 mph - N/A   Unknown
11:55 PM 59.7 °F 43.2 °F 54% 30.19 in 10.0 mi South 5.8 mph - N/A   Unknown